Location: Krakow
(50.0830°N, 19.9170°E)
Time: 06:29:59
(UTC+01:00)

SR - Pass Details

Date: 16 February 2023
Orbit: 582 x 867 km, 66.7° (Epoch: 20 March)

Event Time Altitude Azimuth Distance (km) Brightness Sun altitude
Rises 13:13:10 0° 262° (W) 3,078 ? 25.3°
Reaches altitude 10° 13:16:07 10° 278° (W) 2,108 ? 25.1°
Maximum altitude 13:19:40 21° 327° (NNW) 1,472 ? 24.9°
Drops below altitude 10° 13:23:04 10° 16° (NNE) 1,999 ? 24.6°
Sets 13:25:47 0° 34° (NNE) 2,872 ? 24.5°
